TimeCST,TemperatureF,Dew PointF,Humidity,Sea Level PressureIn,VisibilityMPH,Wind Direction,Wind SpeedMPH,Gust SpeedMPH,PrecipitationIn,Events,Conditions,WindDirDegrees,DateUTC
12:15 AM,-9999,-9999,N/A,30.06,3.0,NNW,9.2,-,N/A,,Mist,330,2013-01-02 06:15:00
12:55 AM,-9999,-9999,N/A,30.04,7.0,NNW,16.1,-,N/A,,Unknown,330,2013-01-02 06:55:00
1:15 AM,37.4,37.4,100,30.03,7.0,North,10.4,16.1,N/A,,Unknown,360,2013-01-02 07:15:00
1:55 AM,-9999,-9999,N/A,30.05,10.0,NNW,4.6,-,N/A,,Unknown,340,2013-01-02 07:55:00
2:15 AM,-9999,-9999,N/A,30.06,7.0,NNW,5.8,-,N/A,,Unknown,340,2013-01-02 08:15:00
2:35 AM,-9999,-9999,N/A,30.06,10.0,NNW,6.9,-,N/A,,Unknown,330,2013-01-02 08:35:00
2:55 AM,-9999,-9999,N/A,30.06,7.0,NW,10.4,-,N/A,,Unknown,320,2013-01-02 08:55:00
3:15 AM,-9999,-9999,N/A,30.07,7.0,North,12.7,-,N/A,,Unknown,350,2013-01-02 09:15:00
3:35 AM,-9999,-9999,N/A,30.07,7.0,NNW,10.4,-,N/A,,Unknown,330,2013-01-02 09:35:00
3:55 AM,-9999,-9999,N/A,30.07,10.0,NNW,9.2,-,N/A,,Unknown,330,2013-01-02 09:55:00
4:15 AM,-9999,-9999,N/A,30.07,10.0,NNW,9.2,-,N/A,,Unknown,340,2013-01-02 10:15:00
4:55 AM,37.4,37.4,100,30.08,7.0,NNW,8.1,-,N/A,,Unknown,340,2013-01-02 10:55:00
5:15 AM,35.6,35.6,100,30.08,7.0,NNW,9.2,-,N/A,,Unknown,340,2013-01-02 11:15:00
5:35 AM,35.6,35.6,100,30.09,7.0,NNW,6.9,17.3,N/A,,Unknown,340,2013-01-02 11:35:00
6:15 AM,35.6,35.6,100,30.11,7.0,NNW,9.2,-,N/A,,Unknown,340,2013-01-02 12:15:00
6:35 AM,35.6,35.6,100,30.12,7.0,NNW,10.4,-,N/A,,Unknown,330,2013-01-02 12:35:00
6:55 AM,35.6,35.6,100,30.11,7.0,North,4.6,-,N/A,,Unknown,350,2013-01-02 12:55:00
7:15 AM,35.6,35.6,100,30.11,7.0,North,8.1,-,N/A,,Unknown,360,2013-01-02 13:15:00
7:35 AM,35.6,35.6,100,30.12,5.0,NNW,6.9,-,N/A,,Mist,340,2013-01-02 13:35:00
7:55 AM,35.6,35.6,100,30.11,7.0,North,9.2,-,N/A,,Unknown,10,2013-01-02 13:55:00
8:15 AM,35.6,35.6,100,30.13,10.0,North,9.2,-,N/A,,Unknown,360,2013-01-02 14:15:00
8:35 AM,35.6,35.6,100,30.13,10.0,North,8.1,-,N/A,,Unknown,10,2013-01-02 14:35:00
8:55 AM,37.4,37.4,100,30.15,10.0,North,4.6,-,N/A,,Unknown,350,2013-01-02 14:55:00
9:15 AM,37.4,37.4,100,30.15,10.0,NNW,8.1,-,N/A,,Unknown,340,2013-01-02 15:15:00
9:35 AM,37.4,37.4,100,30.15,10.0,North,6.9,-,N/A,,Unknown,350,2013-01-02 15:35:00
9:55 AM,37.4,37.4,100,30.15,10.0,NNW,6.9,-,N/A,,Unknown,340,2013-01-02 15:55:00
10:15 AM,37.4,37.4,100,30.16,10.0,North,6.9,-,N/A,,Unknown,360,2013-01-02 16:15:00
10:35 AM,37.4,37.4,100,30.14,10.0,North,6.9,-,N/A,,Unknown,350,2013-01-02 16:35:00
10:55 AM,37.4,37.4,100,30.15,10.0,North,3.5,-,N/A,,Unknown,360,2013-01-02 16:55:00
11:15 AM,37.4,37.4,100,30.14,10.0,North,4.6,-,N/A,,Unknown,10,2013-01-02 17:15:00
11:35 AM,37.4,37.4,100,30.12,7.0,NNW,4.6,-,N/A,,Unknown,340,2013-01-02 17:35:00
11:55 AM,37.4,37.4,100,30.12,7.0,NW,4.6,-,N/A,,Unknown,320,2013-01-02 17:55:00
12:15 PM,35.6,35.6,100,30.12,7.0,NW,6.9,-,N/A,,Unknown,320,2013-01-02 18:15:00
12:35 PM,35.6,35.6,100,30.11,5.0,NNW,6.9,-,N/A,,Mist,330,2013-01-02 18:35:00
12:55 PM,35.6,35.6,100,30.10,5.0,NNW,6.9,-,N/A,,Mist,340,2013-01-02 18:55:00
1:15 PM,35.6,35.6,100,30.10,5.0,NW,5.8,-,N/A,,Mist,320,2013-01-02 19:15:00
1:35 PM,35.6,35.6,100,30.11,5.0,NW,6.9,-,N/A,,Mist,320,2013-01-02 19:35:00
1:55 PM,35.6,35.6,100,30.10,5.0,NNW,5.8,-,N/A,,Mist,330,2013-01-02 19:55:00
2:15 PM,35.6,35.6,100,30.13,5.0,WNW,5.8,-,N/A,,Mist,300,2013-01-02 20:15:00
2:35 PM,35.6,35.6,100,30.13,5.0,NNW,6.9,-,N/A,,Mist,330,2013-01-02 20:35:00
2:55 PM,35.6,35.6,100,30.13,5.0,NNW,5.8,-,N/A,,Mist,330,2013-01-02 20:55:00
3:15 PM,35.6,35.6,100,30.12,5.0,NNW,6.9,-,N/A,,Mist,330,2013-01-02 21:15:00
3:35 PM,35.6,35.6,100,30.12,5.0,North,6.9,-,N/A,,Mist,10,2013-01-02 21:35:00
3:55 PM,35.6,35.6,100,30.10,5.0,North,5.8,-,N/A,,Mist,360,2013-01-02 21:55:00
4:35 PM,-9999,-9999,N/A,30.13,7.0,NNW,6.9,-,N/A,,Unknown,330,2013-01-02 22:35:00
4:55 PM,-9999,-9999,N/A,30.13,7.0,North,4.6,-,N/A,,Unknown,360,2013-01-02 22:55:00
5:15 PM,-9999,-9999,N/A,30.14,7.0,NW,4.6,-,N/A,,Unknown,320,2013-01-02 23:15:00
5:35 PM,-9999,-9999,N/A,30.13,5.0,Calm,Calm,-,N/A,,Haze,0,2013-01-02 23:35:00
5:55 PM,-9999,-9999,N/A,30.16,5.0,NW,5.8,-,N/A,,Haze,320,2013-01-02 23:55:00
6:15 PM,-9999,-9999,N/A,30.17,5.0,NW,6.9,-,N/A,,Haze,320,2013-01-03 00:15:00
6:35 PM,-9999,-9999,N/A,30.16,5.0,Calm,Calm,-,N/A,,Haze,0,2013-01-03 00:35:00
6:55 PM,-9999,-9999,N/A,30.17,5.0,NW,3.5,-,N/A,,Haze,310,2013-01-03 00:55:00
7:15 PM,-9999,-9999,N/A,30.18,4.0,NW,3.5,-,N/A,,Haze,320,2013-01-03 01:15:00
7:35 PM,-9999,-9999,N/A,30.17,4.0,NW,5.8,-,N/A,,Haze,310,2013-01-03 01:35:00
7:55 PM,-9999,-9999,N/A,30.15,5.0,Calm,Calm,-,N/A,,Haze,0,2013-01-03 01:55:00
8:15 PM,-9999,-9999,N/A,30.17,4.0,NW,5.8,-,N/A,,Haze,320,2013-01-03 02:15:00
8:35 PM,-9999,-9999,N/A,30.16,3.0,North,3.5,-,N/A,,Mist,360,2013-01-03 02:35:00
8:55 PM,-9999,-9999,N/A,30.16,4.0,NNW,4.6,-,N/A,,Haze,340,2013-01-03 02:55:00
9:15 PM,-9999,-9999,N/A,30.16,4.0,NNW,3.5,-,N/A,,Haze,330,2013-01-03 03:15:00
9:35 PM,-9999,-9999,N/A,30.18,3.0,NW,5.8,-,N/A,,Mist,310,2013-01-03 03:35:00
9:55 PM,-9999,-9999,N/A,30.17,3.0,North,3.5,-,N/A,,Mist,360,2013-01-03 03:55:00
10:15 PM,-9999,-9999,N/A,30.18,2.5,NW,9.2,-,N/A,,Mist,320,2013-01-03 04:15:00
10:55 PM,-9999,-9999,N/A,30.17,1.2,NW,5.8,-,N/A,,Mist,320,2013-01-03 04:55:00
11:15 PM,-9999,-9999,N/A,30.17,1.2,North,6.9,-,N/A,,Mist,350,2013-01-03 05:15:00
11:35 PM,-9999,-9999,N/A,30.16,2.0,North,4.6,-,N/A,,Mist,360,2013-01-03 05:35:00
11:55 PM,-9999,-9999,N/A,30.16,3.0,NNW,5.8,-,N/A,,Mist,340,2013-01-03 05:55:00